Location: Powder Track
(41.8531°N, 72.3584°W)
Time: 22:56:38
(UTC+00:00)

X-37B - Pass Details

Date: 24 June 2021
Orbit: 383 x 392 km, 45.0° (Epoch: 01 July)

Event Time Altitude Azimuth Distance (km) Brightness Sun altitude
Rises 04:17:12 0° 279° (W) 2,255 4.7 -24.2°
Reaches altitude 10° 04:19:20 10° 287° (WNW) 1,402 3.7 -24.3°
Enters shadow 04:19:26 11° 287° (WNW) 1,361 3.6 -24.3°
